MST,Max TemperatureF,Mean TemperatureF,Min TemperatureF,Max Dew PointF,MeanDew PointF,Min DewpointF,Max Humidity, Mean Humidity, Min Humidity, Max Sea Level PressureIn, Mean Sea Level PressureIn, Min Sea Level PressureIn, Max VisibilityMiles, Mean VisibilityMiles, Min VisibilityMiles, Max Wind SpeedMPH, Mean Wind SpeedMPH, Max Gust SpeedMPH,PrecipitationIn, CloudCover, Events, WindDirDegrees
2011-11-1,40,30,20,30,24,19,96,78,59,30.19,30.00,29.80,10,5,0,32,14,38,0.19,7,Fog-Snow,66
2011-11-2,21,4,-13,19,9,-14,100,86,71,30.69,30.38,30.17,10,4,0,14,6,18,0.01,4,Fog-Snow,9
2011-11-3,38,14,-10,22,7,-16,95,71,47,30.66,30.33,29.98,10,10,10,17,8,18,0.00,0,,150
2011-11-4,49,37,25,26,17,6,56,43,29,29.97,29.77,29.50,10,10,10,35,13,38,0.00,0,,184
2011-11-5,41,30,19,32,21,11,76,66,56,29.64,29.45,29.28,10,9,2,35,13,41,T,3,Snow,288
2011-11-6,31,24,17,15,11,7,73,61,49,30.05,29.89,29.68,10,10,10,32,15,41,0.00,0,,234
2011-11-7,36,26,15,21,16,12,92,70,47,30.12,30.05,29.95,10,10,10,16,6,18,T,5,,168
2011-11-8,34,23,12,22,16,9,100,71,41,30.41,30.19,30.02,10,9,1,18,5,23,0.00,1,,289
2011-11-9,37,24,11,17,11,5,92,59,25,30.55,30.47,30.40,10,10,10,22,8,26,0.00,0,,292
2011-11-10,45,33,20,14,8,2,57,39,21,30.40,30.20,29.97,10,10,10,36,17,44,0.00,0,,240
2011-11-11,49,38,27,12,6,0,39,28,16,30.05,29.83,29.59,10,10,10,29,15,36,0.00,0,,235
2011-11-12,44,34,23,29,20,9,81,55,29,29.62,29.51,29.39,10,6,0,54,26,76,0.03,4,Fog-Snow,256
2011-11-13,41,35,28,26,21,15,78,61,43,29.64,29.51,29.37,10,10,10,49,31,63,T,3,,273
2011-11-14,42,34,26,16,9,5,63,43,23,29.69,29.62,29.55,10,10,10,51,36,63,T,1,,268
2011-11-15,37,30,23,15,9,6,55,42,29,29.98,29.80,29.57,10,10,10,49,29,59,0.00,2,,267
2011-11-16,29,22,15,13,2,-16,73,44,14,30.30,30.18,29.94,10,9,2,30,18,38,T,2,Snow,285
2011-11-17,46,33,20,16,10,2,53,40,27,30.15,29.93,29.63,10,10,10,33,19,43,0.00,1,,226
2011-11-18,50,39,28,20,16,14,58,41,24,29.65,29.48,29.25,10,10,10,36,19,45,0.00,1,,220
2011-11-19,40,24,8,22,16,4,92,68,44,30.03,29.68,29.32,10,6,0,35,13,43,0.02,7,Fog-Snow,338
2011-11-20,37,23,8,27,19,7,92,78,64,30.13,30.04,29.95,10,10,10,17,5,21,T,4,,207
2011-11-21,43,34,25,30,25,21,92,74,55,30.09,30.01,29.91,10,10,10,20,8,23,0.00,4,,216
2011-11-22,43,35,26,21,19,16,81,60,38,30.24,30.13,30.05,10,10,10,36,24,46,0.00,0,,241
2011-11-23,52,39,26,21,18,12,61,44,27,30.25,30.11,29.96,10,10,10,37,15,45,0.00,0,,219
2011-11-24,55,43,31,18,14,9,51,34,16,29.98,29.86,29.70,10,10,10,31,15,36,0.00,0,,213
2011-11-25,45,31,17,27,20,14,91,64,36,30.20,29.89,29.71,10,7,0,40,21,49,T,4,Fog-Snow,292
2011-11-26,28,19,9,9,5,2,84,59,34,30.71,30.56,30.22,10,10,10,31,12,37,T,0,,323
2011-11-27,49,29,8,19,13,2,73,51,29,30.65,30.42,30.18,10,10,10,21,8,25,0.00,0,,214
2011-11-28,53,40,27,21,15,9,61,39,17,30.27,30.19,30.12,10,10,10,26,12,36,0.00,3,,275
2011-11-29,48,34,20,24,19,15,84,59,34,30.32,30.20,29.96,10,10,10,22,9,28,0.00,1,,220
2011-11-30,49,37,25,25,18,11,78,51,24,30.08,29.89,29.69,10,8,0,37,16,47,0.04,3,Fog-Snow,311